Location: Newark
(25.4800°N, 85.7200°E)
Time: 22:13:17
(UTC+00:00)

Transit 4A - All Passes

Search period start: 25 August 2019 00:00
Search period end: 04 September 2019 00:00
Orbit: 864 x 981 km, 66.8° (Epoch: 25 August)

Date Brightness Start Highest point End Pass type
(mag) Time Alt. Az. Time Alt. Az. Time Alt. Az.
25 Aug - 09:36:38 10° SE 09:39:51 14° ESE 09:43:04 10° ENE daylight
25 Aug - 11:19:16 10° SSW 11:25:35 64° WNW 11:31:56 10° NNE daylight
25 Aug - 20:31:42 10° N 20:37:04 32° ENE 20:42:17 10° ESE visible
25 Aug - 22:18:15 10° NW 22:23:11 27° WSW 22:28:01 10° SSW visible
26 Aug - 09:44:01 10° SSE 09:48:57 24° ESE 09:53:55 10° NE daylight
26 Aug - 11:29:03 10° SW 11:34:59 40° WNW 11:40:59 10° N daylight
26 Aug - 20:40:37 10° NNW 20:46:31 51° ENE 20:52:13 10° SE visible
26 Aug - 22:28:49 10° WNW 22:32:17 16° WSW 22:35:43 10° SW night (unlit)
27 Aug - 09:52:19 10° S 09:58:07 39° ESE 10:04:00 10° NE daylight
27 Aug - 11:39:16 10° WSW 11:44:29 26° WNW 11:49:45 10° N daylight
27 Aug - 20:49:47 10° NNW 20:55:52 83° ENE 21:01:45 10° SSE visible
28 Aug - 10:01:06 10° S 10:07:21 62° ESE 10:13:40 10° NNE daylight
28 Aug - 11:50:06 10° W 11:54:04 17° NW 11:58:04 10° NNW daylight
28 Aug - 19:15:01 10° NNE 19:18:25 15° NE 19:21:45 10° E visible
28 Aug - 20:59:12 10° NNW 21:05:09 61° WSW 21:10:54 10° S visible
29 Aug - 10:10:16 10° SSW 10:16:38 84° WNW 10:23:05 10° NNE daylight
29 Aug - 12:02:51 10° WNW 12:03:47 10° NW 12:04:42 10° NW daylight
29 Aug - 19:23:12 10° N 19:28:01 24° ENE 19:32:42 10° ESE visible
29 Aug - 21:08:54 10° NW 21:14:21 37° WSW 21:19:40 10° S night (unlit)
30 Aug - 08:36:10 10° SE 08:40:10 17° ESE 08:44:11 10° ENE daylight
30 Aug - 10:19:48 10° SW 10:26:00 54° WNW 10:32:16 10° NNE daylight
30 Aug - 19:31:56 10° N 19:37:31 38° ENE 19:42:56 10° SE visible
30 Aug - 21:19:00 10° WNW 21:23:30 22° WSW 21:27:54 10° SSW night (unlit)
31 Aug - 08:43:58 10° SSE 08:49:18 29° ESE 08:54:40 10° NE daylight
31 Aug - 10:29:43 10° SW 10:35:27 34° WNW 10:41:13 10° N daylight
31 Aug - 19:40:56 10° NNW 19:46:55 61° ENE 19:52:42 10° SE visible
31 Aug - 21:30:05 10° WNW 21:32:35 13° WSW 21:35:04 10° SW night (unlit)
01 Sep - 08:52:28 10° S 08:58:29 46° ESE 09:04:33 10° NE daylight
01 Sep - 10:40:07 10° WSW 10:44:59 22° WNW 10:49:51 10° N daylight
01 Sep - 18:07:41 10° NE 18:09:15 11° NE 18:10:46 10° ENE visible
01 Sep - 19:50:12 10° NNW 19:56:15 84° WSW 20:02:06 10° SSE night (unlit)
02 Sep - 09:01:24 10° SSW 09:07:44 74° ESE 09:14:08 10° NNE daylight
02 Sep - 10:51:19 10° W 10:54:36 14° NW 10:57:53 10° NNW daylight
02 Sep - 18:14:55 10° NNE 18:18:55 18° ENE 18:22:50 10° E visible
02 Sep - 19:59:42 10° NW 20:05:29 51° WSW 20:11:08 10° S night (unlit)
03 Sep - 07:29:00 10° SE 07:31:23 12° ESE 07:33:46 10° E daylight
03 Sep - 09:10:42 10° SSW 09:17:03 72° WNW 09:23:27 10° NNE daylight
03 Sep - 18:23:21 10° N 18:28:28 28° ENE 18:33:27 10° ESE visible
03 Sep - 20:09:31 10° NW 20:14:41 31° WSW 20:19:43 10° SSW night (unlit)
